Weather History for Gillette, WY

Change the Weather History Date:

Sunday, May 5, 2013

  Actual Average Record
Temperature  
Mean Temperature 47 °F 50 °F  
Max Temperature 63 °F 62 °F 85 °F (1966)
Min Temperature 31 °F 37 °F 20 °F (1967)
Degree Days  
Heating Degree Days 18 16  
Month to date heating degree days 114 82  
Since 1 July heating degree days 7076 7098  
Cooling Degree Days 0 0  
Month to date cooling degree days 0 0  
Year to date cooling degree days 0 0  
Moisture  
Dew Point 24 °F    
Average Humidity 49    
Maximum Humidity 75    
Minimum Humidity 23    
Precipitation  
Precipitation 0.00 in 0.06 in 1.85 in (1993)
Month to date precipitation 0.00 0.34  
Year to date precipitation 3.12 3.55  
Sea Level Pressure  
Sea Level Pressure 30.15 in    
Wind  
Wind Speed 5 mph (SSE)    
Max Wind Speed 17 mph    
Max Gust Speed 20 mph    
Visibility 10 miles    
Events      
T = Trace of Precipitation, MM = Missing Value Source: NWS Daily Summary

Daily Weather History Graph

Daily Weather History Graph

Search for Another Location

Airport:

Trip Planner

Search our weather history database for the weather conditions in past years. The results will help you decide how hot, cold, wet, or windy it might be!

Date:

Astronomy

May. 05, 2013 Rise Set
Actual Time 5:47 AM MDT 8:11 PM MDT
Civil Twilight 5:14 AM MDT 8:43 PM MDT
Nautical Twilight 4:34 AM MDT 9:24 PM MDT
Astronomical Twilight 3:48 AM MDT 10:10 PM MDT
Moon 3:28 AM MDT (5/5) 4:05 PM MDT (5/5)
Length of Visible Light 15h 29m
Length of Day
14h 24m
Waning Crescent, 17% of the Moon is Illuminated
May 5
Waning Crescent
May 9
New
May 17
First Quarter
May 24
Full
May 31
Last Quarter

Hourly Weather History & Observations

Time (MDT) Temp. Windchill Dew Point Humidity Pressure Visibility Wind Dir Wind Speed Gust Speed Precip Events Conditions
12:53 AM 34.0 °F 31.0 °F 26.1 °F 73% 30.24 in 10.0 mi South 3.5 mph - N/A   Overcast
1:53 AM 36.0 °F 33.3 °F 24.1 °F 62% 30.23 in 10.0 mi East 3.5 mph - N/A   Overcast
2:53 AM 35.1 °F 32.2 °F 21.9 °F 59% 30.21 in 10.0 mi SE 3.5 mph - N/A   Clear
3:53 AM 34.0 °F 29.8 °F 21.0 °F 59% 30.22 in 10.0 mi SE 4.6 mph - N/A   Clear
4:53 AM 34.0 °F 29.8 °F 21.0 °F 59% 30.22 in 10.0 mi SE 4.6 mph - N/A   Clear
5:53 AM 30.9 °F - 21.0 °F 67% 30.22 in 10.0 mi Calm Calm - N/A   Clear
6:53 AM 39.0 °F 32.3 °F 23.0 °F 53% 30.20 in 10.0 mi South 10.4 mph - N/A   Clear
7:53 AM 46.0 °F 39.0 °F 21.0 °F 37% 30.19 in 10.0 mi South 17.3 mph - N/A   Clear
8:53 AM 50.0 °F - 21.9 °F 33% 30.20 in 10.0 mi South 12.7 mph - N/A   Clear
9:53 AM 52.0 °F - 21.0 °F 30% 30.21 in 10.0 mi South 8.1 mph - N/A   Clear
10:53 AM 54.0 °F - 21.0 °F 28% 30.19 in 10.0 mi Calm Calm - N/A   Clear
11:53 AM 55.9 °F - 21.9 °F 27% 30.19 in 10.0 mi NW 4.6 mph - N/A   Clear
12:53 PM 57.9 °F - 23.0 °F 26% 30.16 in 10.0 mi Variable 3.5 mph - N/A   Clear
1:53 PM 59.0 °F - 25.0 °F 27% 30.14 in 10.0 mi SSW 6.9 mph - N/A   Clear
2:53 PM 61.0 °F - 26.1 °F 26% 30.12 in 10.0 mi Variable 5.8 mph - N/A   Clear
3:53 PM 60.1 °F - 24.1 °F 25% 30.10 in 10.0 mi West 4.6 mph - N/A   Clear
4:53 PM 61.0 °F - 23.0 °F 23% 30.09 in 10.0 mi Calm Calm - N/A   Clear
5:53 PM 62.6 °F - 24.8 °F 24% 30.10 in 10.0 mi Calm Calm - N/A   Clear
6:53 PM 60.1 °F - 24.1 °F 25% 30.05 in 10.0 mi Calm Calm - N/A   Clear
7:53 PM 53.1 °F - 28.9 °F 40% 30.06 in 10.0 mi East 6.9 mph - N/A   Clear
8:53 PM 43.0 °F - 28.0 °F 56% 30.07 in 9.0 mi Calm Calm - N/A   Unknown
9:53 PM 45.0 °F - 28.0 °F 52% 30.08 in 10.0 mi Calm Calm - N/A   Clear
10:53 PM 37.0 °F - 27.0 °F 67% 30.09 in 10.0 mi Calm Calm - N/A   Clear
11:53 PM 34.0 °F - 27.0 °F 75% 30.09 in 10.0 mi Calm Calm - N/A   Clear